"read_dt","SO2 (ppb)","flags","PMT voltage (V)","lamp voltage (V)","lamp intensity (Hz)","internal temp (C)","react chamber temp (C)","sample flow (l/min)","pres (mmHg)","SO2 bkg (ppb)","SO2 coefficient"
2015-06-25 00:00:00,1792E-3,5C000000,-0724,0824,12116,027.5,045.4,0.476,733.2,01.19,0.508
2015-06-25 00:01:00,1733E-3,5C000000,-0724,0824,12047,027.5,045.5,0.476,733.3,01.19,0.508
2015-06-25 00:02:00,1683E-3,5C000000,-0724,0824,12318,027.5,045.4,0.476,733.2,01.19,0.508
2015-06-25 00:03:00,1773E-3,5C000000,-0724,0824,12174,027.5,045.4,0.476,733.2,01.19,0.508
2015-06-25 00:04:00,1664E-3,5C000000,-0724,0824,12378,027.5,045.4,0.476,733.3,01.19,0.508
2015-06-25 00:05:00,1628E-3,5C000000,-0724,0823,12149,027.5,045.4,0.476,733.2,01.19,0.508
2015-06-25 00:06:00,1659E-3,5C000000,-0724,0823,12303,027.5,045.4,0.476,733.2,01.19,0.508
2015-06-25 00:07:00,1641E-3,5C000000,-0724,0824,12181,027.5,045.4,0.476,733.2,01.19,0.508
2015-06-25 00:08:00,1800E-3,5C000000,-0724,0824,12324,027.5,045.5,0.476,733.3,01.19,0.508
2015-06-25 00:09:00,1554E-3,5C000000,-0724,0824,12322,027.5,045.4,0.476,733.2,01.19,0.508
2015-06-25 00:10:00,1657E-3,5C000000,-0724,0824,12272,027.5,045.4,0.476,733.3,01.19,0.508
2015-06-25 00:11:00,1748E-3,5C000000,-0724,0823,12265,027.5,045.4,0.476,733.3,01.19,0.508
2015-06-25 00:12:00,1735E-3,5C000000,-0724,0824,12255,027.5,045.4,0.476,733.3,01.19,0.508
2015-06-25 00:13:00,1748E-3,5C000000,-0724,0823,12259,027.5,045.4,0.476,733.2,01.19,0.508
2015-06-25 00:14:00,1510E-3,5C000000,-0724,0823,12104,027.5,045.4,0.476,733.2,01.19,0.508
2015-06-25 00:15:00,1550E-3,5C000000,-0724,0823,12141,027.5,045.5,0.476,733.2,01.19,0.508
2015-06-25 00:16:00,1739E-3,5C000000,-0724,0823,12160,027.5,045.5,0.476,733.2,01.19,0.508
2015-06-25 00:17:00,1629E-3,5C000000,-0724,0822,12157,027.5,045.4,0.476,733.2,01.19,0.508
2015-06-25 00:18:00,1701E-3,5C000000,-0724,0824,12306,027.5,045.4,0.476,733.2,01.19,0.508
2015-06-25 00:19:00,1594E-3,5C000000,-0724,0824,12161,027.5,045.4,0.476,733.2,01.19,0.508
2015-06-25 00:20:00,1769E-3,5C000000,-0724,0823,12264,027.6,045.4,0.476,733.2,01.19,0.508
2015-06-25 00:21:00,1721E-3,5C000000,-0724,0824,12317,027.6,045.4,0.476,733.3,01.19,0.508
2015-06-25 00:22:00,1578E-3,5C000000,-0724,0823,12197,027.6,045.4,0.476,733.2,01.19,0.508
2015-06-25 00:23:00,1726E-3,5C000000,-0724,0824,12227,027.6,045.4,0.476,733.2,01.19,0.508
2015-06-25 00:24:00,1742E-3,5C000000,-0724,0823,12171,027.6,045.4,0.476,733.2,01.19,0.508
2015-06-25 00:25:00,1653E-3,5C000000,-0724,0822,12145,027.6,045.4,0.476,733.2,01.19,0.508
2015-06-25 00:26:00,1717E-3,5C000000,-0724,0823,12228,027.6,045.4,0.476,733.2,01.19,0.508
2015-06-25 00:27:00,1641E-3,5C000000,-0724,0823,12249,027.5,045.4,0.476,733.2,01.19,0.508
2015-06-25 00:28:00,1745E-3,5C000000,-0724,0823,12103,027.6,045.4,0.476,733.2,01.19,0.508
2015-06-25 00:29:00,1708E-3,5C000000,-0724,0823,12201,027.6,045.4,0.476,733.1,01.19,0.508
2015-06-25 00:30:00,1677E-3,5C000000,-0724,0823,12286,027.6,045.4,0.476,733.1,01.19,0.508
2015-06-25 00:31:00,1717E-3,5C000000,-0724,0823,12343,027.6,045.4,0.476,733.2,01.19,0.508
2015-06-25 00:32:00,1582E-3,5C000000,-0724,0824,12096,027.6,045.4,0.476,733.1,01.19,0.508
2015-06-25 00:33:00,1659E-3,5C000000,-0724,0824,12213,027.6,045.4,0.476,733.1,01.19,0.508
2015-06-25 00:34:00,1630E-3,5C000000,-0724,0823,12187,027.6,045.4,0.476,733.1,01.19,0.508
2015-06-25 00:35:00,1729E-3,5C000000,-0724,0823,12466,027.6,045.4,0.476,733.1,01.19,0.508
2015-06-25 00:36:00,1736E-3,5C000000,-0724,0824,12463,027.6,045.5,0.476,733.1,01.19,0.508
2015-06-25 00:37:00,1512E-3,5C000000,-0724,0823,12349,027.6,045.5,0.476,733.1,01.19,0.508
2015-06-25 00:38:00,1712E-3,5C000000,-0724,0823,12178,027.6,045.4,0.476,733.1,01.19,0.508
2015-06-25 00:39:00,1637E-3,5C000000,-0724,0823,12252,027.6,045.4,0.476,733.1,01.19,0.508
2015-06-25 00:40:00,1685E-3,5C000000,-0724,0823,12235,027.6,045.5,0.476,733.1,01.19,0.508
2015-06-25 00:41:00,1598E-3,5C000000,-0724,0824,12227,027.6,045.4,0.476,733.1,01.19,0.508
2015-06-25 00:42:00,1586E-3,5C000000,-0724,0824,12262,027.6,045.4,0.476,733.1,01.19,0.508
2015-06-25 00:43:00,1778E-3,5C000000,-0724,0823,12004,027.6,045.5,0.476,733.1,01.19,0.508
2015-06-25 00:44:00,1630E-3,5C000000,-0724,0823,12277,027.6,045.4,0.476,733.1,01.19,0.508
2015-06-25 00:45:00,1780E-3,5C000000,-0724,0824,12324,027.6,045.4,0.476,733.1,01.19,0.508
2015-06-25 00:46:00,1702E-3,5C000000,-0724,0824,12331,027.6,045.5,0.475,733.1,01.19,0.508
2015-06-25 00:47:00,1640E-3,5C000000,-0724,0824,12242,027.6,045.4,0.475,733.1,01.19,0.508
2015-06-25 00:48:00,1727E-3,5C000000,-0724,0824,12315,027.6,045.4,0.476,733.1,01.19,0.508
2015-06-25 00:49:00,1750E-3,5C000000,-0724,0824,12337,027.6,045.4,0.476,733.1,01.19,0.508
2015-06-25 00:50:00,1657E-3,5C000000,-0724,0824,12187,027.6,045.5,0.476,733.1,01.19,0.508
2015-06-25 00:51:00,1733E-3,5C000000,-0724,0823,12137,027.7,045.4,0.476,733.1,01.19,0.508
2015-06-25 00:52:00,1737E-3,5C000000,-0724,0824,12286,027.6,045.4,0.476,733.1,01.19,0.508
2015-06-25 00:53:00,1546E-3,5C000000,-0724,0824,12262,027.7,045.4,0.476,733.1,01.19,0.508
2015-06-25 00:54:00,1627E-3,5C000000,-0724,0823,12237,027.7,045.4,0.476,733.1,01.19,0.508
2015-06-25 00:55:00,1653E-3,5C000000,-0724,0824,12284,027.6,045.4,0.476,733.1,01.19,0.508
2015-06-25 00:56:00,1777E-3,5C000000,-0724,0823,12147,027.6,045.4,0.476,733.1,01.19,0.508
2015-06-25 00:57:00,1664E-3,5C000000,-0724,0822,12351,027.6,045.4,0.476,733.1,01.19,0.508
2015-06-25 00:58:00,1668E-3,5C000000,-0724,0823,12327,027.7,045.4,0.476,733.1,01.19,0.508
2015-06-25 00:59:00,1711E-3,5C000000,-0724,0822,12203,027.7,045.4,0.476,733.1,01.19,0.508
2015-06-25 01:00:00,1573E-3,5C000000,-0724,0823,12363,027.7,045.4,0.476,733.1,01.19,0.508
2015-06-25 01:01:00,1620E-3,5C000000,-0724,0824,12381,027.7,045.5,0.475,733.1,01.19,0.508
2015-06-25 01:02:00,1721E-3,5C000000,-0724,0824,12272,027.7,045.4,0.475,733.1,01.19,0.508
2015-06-25 01:03:00,1791E-3,5C000000,-0724,0824,12367,027.7,045.4,0.475,733.1,01.19,0.508
2015-06-25 01:04:00,1686E-3,5C000000,-0724,0824,12380,027.7,045.4,0.476,733.1,01.19,0.508
2015-06-25 01:05:00,1791E-3,5C000000,-0724,0824,12197,027.7,045.4,0.476,733.1,01.19,0.508
2015-06-25 01:06:00,1583E-3,5C000000,-0724,0824,12213,027.7,045.4,0.476,733.1,01.19,0.508
2015-06-25 01:07:00,1664E-3,5C000000,-0724,0824,12261,027.7,045.5,0.476,733.1,01.19,0.508
2015-06-25 01:08:00,1654E-3,5C000000,-0724,0823,12111,027.7,045.4,0.476,733.1,01.19,0.508
2015-06-25 01:09:00,1680E-3,5C000000,-0724,0823,12152,027.7,045.4,0.476,733.1,01.19,0.508
2015-06-25 01:10:00,1726E-3,5C000000,-0724,0823,12274,027.7,045.4,0.476,733.1,01.19,0.508
2015-06-25 01:11:00,1686E-3,5C000000,-0724,0823,12221,027.7,045.4,0.476,733.1,01.19,0.508
2015-06-25 01:12:00,1605E-3,5C000000,-0724,0823,12402,027.7,045.4,0.476,733.1,01.19,0.508
2015-06-25 01:13:00,1736E-3,5C000000,-0724,0823,12216,027.7,045.5,0.476,733.0,01.19,0.508
2015-06-25 01:14:00,1630E-3,5C000000,-0724,0823,12248,027.7,045.5,0.476,733.0,01.19,0.508
2015-06-25 01:15:00,1747E-3,5C000000,-0724,0824,12237,027.7,045.5,0.476,733.0,01.19,0.508
2015-06-25 01:16:00,1762E-3,5C000000,-0724,0824,12241,027.7,045.5,0.476,733.0,01.19,0.508
2015-06-25 01:17:00,1555E-3,5C000000,-0724,0823,12200,027.7,045.4,0.476,733.0,01.19,0.508
2015-06-25 01:18:00,1650E-3,5C000000,-0724,0823,12210,027.7,045.5,0.476,733.0,01.19,0.508
2015-06-25 01:19:00,1699E-3,5C000000,-0724,0823,12148,027.7,045.4,0.475,733.0,01.19,0.508
2015-06-25 01:20:00,1596E-3,5C000000,-0724,0823,12272,027.8,045.5,0.475,733.0,01.19,0.508
2015-06-25 01:21:00,1674E-3,5C000000,-0724,0824,12290,027.7,045.4,0.475,733.0,01.19,0.508
2015-06-25 01:22:00,1663E-3,5C000000,-0724,0823,12172,027.7,045.4,0.475,733.1,01.19,0.508
2015-06-25 01:23:00,1633E-3,5C000000,-0724,0824,12282,027.8,045.4,0.475,733.1,01.19,0.508
2015-06-25 01:24:00,1632E-3,5C000000,-0724,0824,12163,027.8,045.5,0.475,733.1,01.19,0.508
2015-06-25 01:25:00,1638E-3,5C000000,-0724,0824,12273,027.8,045.5,0.475,733.1,01.19,0.508
2015-06-25 01:26:00,1635E-3,5C000000,-0724,0824,12224,027.8,045.4,0.475,733.1,01.19,0.508
2015-06-25 01:27:00,1696E-3,5C000000,-0724,0824,11919,027.8,045.4,0.475,733.1,01.19,0.508
2015-06-25 01:28:00,1658E-3,5C000000,-0724,0823,12204,027.8,045.4,0.476,733.0,01.19,0.508
2015-06-25 01:29:00,1692E-3,5C000000,-0724,0824,12056,027.8,045.5,0.476,733.0,01.19,0.508
2015-06-25 01:30:00,1580E-3,5C000000,-0724,0823,12179,027.8,045.5,0.476,733.1,01.19,0.508
2015-06-25 01:31:00,1650E-3,5C000000,-0724,0824,12322,027.8,045.4,0.476,733.0,01.19,0.508
2015-06-25 01:32:00,1775E-3,5C000000,-0724,0824,12227,027.8,045.4,0.476,733.0,01.19,0.508
2015-06-25 01:33:00,1684E-3,5C000000,-0724,0823,12339,027.8,045.4,0.476,733.0,01.19,0.508
2015-06-25 01:34:00,1663E-3,5C000000,-0724,0824,12489,027.8,045.4,0.476,733.0,01.19,0.508
2015-06-25 01:35:00,1640E-3,5C000000,-0724,0823,12146,027.8,045.4,0.476,733.0,01.19,0.508
2015-06-25 01:36:00,1696E-3,5C000000,-0724,0823,12235,027.8,045.4,0.476,733.0,01.19,0.508
2015-06-25 01:37:00,1683E-3,5C000000,-0724,0824,12331,027.8,045.4,0.476,733.0,01.19,0.508
2015-06-25 01:38:00,1711E-3,5C000000,-0724,0823,12179,027.8,045.4,0.476,733.0,01.19,0.508
2015-06-25 01:39:00,1618E-3,5C000000,-0724,0823,12343,027.8,045.4,0.476,733.0,01.19,0.508
2015-06-25 01:40:00,1696E-3,5C000000,-0724,0824,12267,027.8,045.4,0.475,733.0,01.19,0.508
2015-06-25 01:41:00,1660E-3,5C000000,-0724,0823,12273,027.8,045.4,0.475,733.0,01.19,0.508
2015-06-25 01:42:00,1717E-3,5C000000,-0724,0823,12273,027.8,045.4,0.475,733.0,01.19,0.508
2015-06-25 01:43:00,1754E-3,5C000000,-0724,0823,12381,027.8,045.4,0.475,733.0,01.19,0.508
2015-06-25 01:44:00,1646E-3,5C000000,-0724,0823,12173,027.8,045.4,0.475,733.1,01.19,0.508
2015-06-25 01:45:00,1651E-3,5C000000,-0724,0824,12268,027.8,045.4,0.475,733.0,01.19,0.508
2015-06-25 01:46:00,1797E-3,5C000000,-0724,0823,12165,027.8,045.5,0.475,733.0,01.19,0.508
2015-06-25 01:47:00,1756E-3,5C000000,-0724,0822,12285,027.8,045.5,0.475,733.1,01.19,0.508
2015-06-25 01:48:00,1726E-3,5C000000,-0724,0824,12295,027.9,045.4,0.475,733.0,01.19,0.508
2015-06-25 01:49:00,1890E-3,5C000000,-0724,0824,12330,027.8,045.4,0.476,733.1,01.19,0.508
2015-06-25 01:50:00,1521E-3,5C000000,-0724,0824,12159,027.8,045.4,0.476,733.1,01.19,0.508
2015-06-25 01:51:00,1629E-3,5C000000,-0724,0823,12204,027.9,045.4,0.476,733.1,01.19,0.508
2015-06-25 01:52:00,1582E-3,5C000000,-0724,0824,12383,027.8,045.5,0.476,733.1,01.19,0.508
2015-06-25 01:53:00,1617E-3,5C000000,-0724,0824,12284,027.9,045.5,0.476,733.1,01.19,0.508
2015-06-25 01:54:00,1659E-3,5C000000,-0724,0823,12278,027.8,045.5,0.476,733.1,01.19,0.508
2015-06-25 01:55:00,1573E-3,5C000000,-0724,0823,12342,027.9,045.4,0.476,733.1,01.19,0.508
2015-06-25 01:56:00,1607E-3,5C000000,-0724,0823,12316,027.9,045.4,0.476,733.1,01.19,0.508
2015-06-25 01:57:00,1687E-3,5C000000,-0724,0823,12151,027.9,045.4,0.475,733.1,01.19,0.508
2015-06-25 01:58:00,1694E-3,5C000000,-0724,0824,12391,027.8,045.4,0.475,733.2,01.19,0.508
2015-06-25 01:59:00,1742E-3,5C000000,-0724,0824,12371,027.9,045.5,0.475,733.2,01.19,0.508
2015-06-25 02:00:00,1762E-3,5C000000,-0724,0823,12082,027.9,045.5,0.475,733.2,01.19,0.508
2015-06-25 02:01:00,1522E-3,5C000000,-0724,0823,12092,027.9,045.4,0.476,733.2,01.19,0.508
2015-06-25 02:02:00,1714E-3,5C000000,-0724,0823,12288,027.9,045.4,0.476,733.2,01.19,0.508
2015-06-25 02:03:00,1649E-3,5C000000,-0724,0824,12080,027.9,045.4,0.476,733.2,01.19,0.508
2015-06-25 02:04:00,1679E-3,5C000000,-0724,0823,12237,027.9,045.5,0.476,733.2,01.19,0.508
2015-06-25 02:05:00,1583E-3,5C000000,-0724,0823,12332,027.9,045.4,0.476,733.2,01.19,0.508
2015-06-25 02:06:00,1573E-3,5C000000,-0724,0824,12156,027.9,045.4,0.475,733.2,01.19,0.508
2015-06-25 02:07:00,1742E-3,5C000000,-0724,0823,12209,027.9,045.4,0.475,733.2,01.19,0.508
2015-06-25 02:08:00,1713E-3,5C000000,-0724,0823,12294,027.9,045.4,0.475,733.2,01.19,0.508
2015-06-25 02:09:00,1679E-3,5C000000,-0724,0823,12258,027.9,045.4,0.475,733.2,01.19,0.508
2015-06-25 02:10:00,1736E-3,5C000000,-0724,0822,12197,027.9,045.4,0.476,733.2,01.19,0.508
2015-06-25 02:11:00,1669E-3,5C000000,-0724,0823,12344,027.9,045.4,0.476,733.2,01.19,0.508
2015-06-25 02:12:00,1775E-3,5C000000,-0724,0823,12196,027.9,045.4,0.476,733.2,01.19,0.508
2015-06-25 02:13:00,1662E-3,5C000000,-0724,0823,12355,027.9,045.4,0.476,733.2,01.19,0.508
2015-06-25 02:14:00,1691E-3,5C000000,-0724,0823,12314,027.9,045.4,0.476,733.2,01.19,0.508
2015-06-25 02:15:00,1705E-3,5C000000,-0724,0824,12271,027.9,045.4,0.475,733.2,01.19,0.508
2015-06-25 02:16:00,1719E-3,5C000000,-0724,0823,12195,027.9,045.5,0.475,733.2,01.19,0.508
2015-06-25 02:17:00,1716E-3,5C000000,-0724,0823,12239,027.9,045.5,0.475,733.2,01.19,0.508
2015-06-25 02:18:00,1627E-3,5C000000,-0724,0823,12247,027.9,045.5,0.475,733.2,01.19,0.508
2015-06-25 02:19:00,1731E-3,5C000000,-0724,0823,12230,027.9,045.5,0.475,733.2,01.19,0.508
2015-06-25 02:20:00,1746E-3,5C000000,-0724,0822,12092,027.9,045.4,0.476,733.2,01.19,0.508
2015-06-25 02:21:00,1537E-3,5C000000,-0724,0823,12137,027.9,045.4,0.476,733.2,01.19,0.508
2015-06-25 02:22:00,1691E-3,5C000000,-0724,0824,12207,027.9,045.4,0.476,733.2,01.19,0.508
2015-06-25 02:23:00,1803E-3,5C000000,-0724,0823,12209,027.9,045.4,0.476,733.2,01.19,0.508
2015-06-25 02:24:00,1654E-3,5C000000,-0724,0822,12246,027.9,045.4,0.475,733.2,01.19,0.508
2015-06-25 02:25:00,1784E-3,5C000000,-0724,0824,12382,027.9,045.4,0.475,733.2,01.19,0.508
2015-06-25 02:26:00,1687E-3,5C000000,-0724,0824,12181,027.9,045.5,0.475,733.2,01.19,0.508
2015-06-25 02:27:00,1740E-3,5C000000,-0724,0824,12185,027.9,045.5,0.475,733.2,01.19,0.508
2015-06-25 02:28:00,1606E-3,5C000000,-0724,0823,12249,027.9,045.4,0.475,733.2,01.19,0.508
2015-06-25 02:29:00,1791E-3,5C000000,-0724,0823,12342,027.9,045.4,0.476,733.2,01.19,0.508
2015-06-25 02:30:00,1538E-3,5C000000,-0724,0823,12110,027.9,045.4,0.476,733.2,01.19,0.508
2015-06-25 02:31:00,1716E-3,5C000000,-0724,0824,12319,027.9,045.5,0.476,733.2,01.19,0.508
2015-06-25 02:32:00,1746E-3,5C000000,-0724,0823,12322,027.9,045.5,0.475,733.2,01.19,0.508
2015-06-25 02:33:00,1567E-3,5C000000,-0724,0823,12155,027.9,045.4,0.475,733.2,01.19,0.508
2015-06-25 02:34:00,1659E-3,5C000000,-0724,0824,12339,027.9,045.4,0.475,733.2,01.19,0.508
2015-06-25 02:35:00,1679E-3,5C000000,-0724,0824,12315,027.9,045.4,0.475,733.2,01.19,0.508
2015-06-25 02:36:00,1811E-3,5C000000,-0724,0824,12392,028.0,045.4,0.475,733.2,01.19,0.508
2015-06-25 02:37:00,1668E-3,5C000000,-0724,0824,12262,027.9,045.5,0.476,733.2,01.19,0.508
2015-06-25 02:38:00,1660E-3,5C000000,-0724,0823,12159,028.0,045.4,0.476,733.2,01.19,0.508
2015-06-25 02:39:00,1630E-3,5C000000,-0724,0824,12149,027.9,045.4,0.476,733.2,01.19,0.508
2015-06-25 02:40:00,1728E-3,5C000000,-0724,0823,12070,027.9,045.5,0.476,733.2,01.19,0.508
2015-06-25 02:41:00,1697E-3,5C000000,-0724,0824,12296,027.9,045.5,0.475,733.2,01.19,0.508
2015-06-25 02:42:00,1622E-3,5C000000,-0724,0825,12210,027.9,045.4,0.475,733.2,01.19,0.508
2015-06-25 02:43:00,1691E-3,5C000000,-0724,0823,12159,028.0,045.4,0.475,733.2,01.19,0.508
2015-06-25 02:44:00,1797E-3,5C000000,-0724,0823,12177,028.0,045.5,0.475,733.2,01.19,0.508
2015-06-25 02:45:00,1659E-3,5C000000,-0724,0823,12415,028.0,045.5,0.476,733.3,01.19,0.508
2015-06-25 02:46:00,1667E-3,5C000000,-0724,0823,12148,028.0,045.5,0.476,733.2,01.19,0.508
2015-06-25 02:47:00,1649E-3,5C000000,-0724,0823,12186,028.0,045.4,0.476,733.2,01.19,0.508
2015-06-25 02:48:00,1570E-3,5C000000,-0724,0824,12195,028.0,045.5,0.475,733.2,01.19,0.508
2015-06-25 02:49:00,1782E-3,5C000000,-0724,0824,12263,028.0,045.5,0.475,733.2,01.19,0.508
2015-06-25 02:50:00,1705E-3,5C000000,-0724,0824,12204,028.0,045.5,0.475,733.2,01.19,0.508
2015-06-25 02:51:00,1848E-3,5C000000,-0724,0824,12308,028.0,045.5,0.475,733.2,01.19,0.508
2015-06-25 02:52:00,1740E-3,5C000000,-0724,0823,12272,028.0,045.4,0.476,733.2,01.19,0.508
2015-06-25 02:53:00,1636E-3,5C000000,-0724,0823,12153,028.0,045.4,0.476,733.2,01.19,0.508
2015-06-25 02:54:00,1658E-3,5C000000,-0724,0823,12228,028.0,045.4,0.475,733.2,01.19,0.508
2015-06-25 02:55:00,1699E-3,5C000000,-0724,0824,12311,028.0,045.4,0.475,733.2,01.19,0.508
2015-06-25 02:56:00,1700E-3,5C000000,-0724,0825,12218,028.0,045.4,0.475,733.2,01.19,0.508
2015-06-25 02:57:00,1595E-3,5C000000,-0724,0823,12315,028.0,045.4,0.475,733.2,01.19,0.508
2015-06-25 02:58:00,1611E-3,5C000000,-0724,0823,12365,028.0,045.5,0.476,733.2,01.19,0.508
2015-06-25 02:59:00,1690E-3,5C000000,-0724,0824,12118,028.0,045.4,0.476,733.2,01.19,0.508
2015-06-25 03:00:00,1613E-3,5C000000,-0724,0824,12257,028.0,045.4,0.475,733.2,01.19,0.508
2015-06-25 03:01:00,1685E-3,5C000000,-0724,0824,12062,028.0,045.5,0.475,733.1,01.19,0.508
2015-06-25 03:02:00,1664E-3,5C000000,-0724,0824,12302,028.0,045.5,0.475,733.2,01.19,0.508
2015-06-25 03:03:00,1643E-3,5C000000,-0724,0824,12125,028.0,045.4,0.475,733.1,01.19,0.508
2015-06-25 03:04:00,1730E-3,5C000000,-0724,0824,12284,028.0,045.4,0.476,733.2,01.19,0.508
2015-06-25 03:05:00,1790E-3,5C000000,-0724,0824,12277,028.0,045.5,0.476,733.1,01.19,0.508
2015-06-25 03:06:00,1794E-3,5C000000,-0724,0824,12245,028.0,045.5,0.475,733.1,01.19,0.508
2015-06-25 03:07:00,1633E-3,5C000000,-0724,0824,12303,028.0,045.5,0.475,733.1,01.19,0.508
2015-06-25 03:08:00,1681E-3,5C000000,-0724,0823,12267,028.0,045.4,0.475,733.1,01.19,0.508
2015-06-25 03:09:00,1710E-3,5C000000,-0724,0824,12205,028.0,045.5,0.475,733.1,01.19,0.508
2015-06-25 03:10:00,1683E-3,5C000000,-0724,0822,12254,028.0,045.5,0.475,733.1,01.19,0.508
2015-06-25 03:11:00,1564E-3,5C000000,-0724,0824,12175,028.0,045.4,0.475,733.1,01.19,0.508
2015-06-25 03:12:00,1686E-3,5C000000,-0724,0824,12229,028.0,045.4,0.476,733.0,01.19,0.508
2015-06-25 03:13:00,1645E-3,5C000000,-0724,0824,12239,028.0,045.4,0.475,733.0,01.19,0.508
2015-06-25 03:14:00,1614E-3,5C000000,-0724,0823,12299,028.0,045.5,0.475,733.0,01.19,0.508
2015-06-25 03:15:00,1631E-3,5C000000,-0724,0823,12246,028.0,045.5,0.475,733.0,01.19,0.508
2015-06-25 03:16:00,1593E-3,5C000000,-0724,0824,12169,028.0,045.4,0.475,733.0,01.19,0.508
2015-06-25 03:17:00,1784E-3,5C000000,-0724,0823,12086,028.0,045.4,0.475,733.0,01.19,0.508
2015-06-25 03:18:00,1717E-3,5C000000,-0724,0823,12235,028.0,045.4,0.475,733.0,01.19,0.508
2015-06-25 03:19:00,1730E-3,5C000000,-0724,0823,12271,028.0,045.5,0.475,733.0,01.19,0.508
2015-06-25 03:20:00,1645E-3,5C000000,-0724,0824,12419,028.0,045.5,0.476,733.0,01.19,0.508
2015-06-25 03:21:00,1681E-3,5C000000,-0724,0824,12320,028.0,045.4,0.475,732.9,01.19,0.508
2015-06-25 03:22:00,1674E-3,5C000000,-0724,0824,12264,028.0,045.5,0.475,733.0,01.19,0.508
2015-06-25 03:23:00,1685E-3,5C000000,-0724,0824,12249,028.1,045.5,0.475,733.0,01.19,0.508
2015-06-25 03:24:00,1667E-3,5C000000,-0724,0824,12238,028.0,045.5,0.475,733.0,01.19,0.508
2015-06-25 03:25:00,1566E-3,5C000000,-0724,0823,12036,028.1,045.4,0.475,733.0,01.19,0.508
2015-06-25 03:26:00,1641E-3,5C000000,-0724,0823,12027,028.0,045.5,0.475,733.0,01.19,0.508
2015-06-25 03:27:00,1603E-3,5C000000,-0724,0825,12483,028.1,045.5,0.475,733.0,01.19,0.508
2015-06-25 03:28:00,1651E-3,5C000000,-0724,0823,12251,028.0,045.5,0.476,733.0,01.19,0.508
2015-06-25 03:29:00,1768E-3,5C000000,-0724,0824,12198,028.0,045.5,0.475,733.0,01.19,0.508
2015-06-25 03:30:00,1639E-3,5C000000,-0724,0823,12269,028.0,045.5,0.475,733.0,01.19,0.508
2015-06-25 03:31:00,1690E-3,5C000000,-0724,0823,12124,028.1,045.5,0.475,733.0,01.19,0.508
2015-06-25 03:32:00,1605E-3,5C000000,-0724,0823,12458,028.0,045.4,0.475,733.0,01.19,0.508
2015-06-25 03:33:00,1734E-3,5C000000,-0724,0823,12325,028.0,045.4,0.475,733.0,01.19,0.508
2015-06-25 03:34:00,1645E-3,5C000000,-0724,0823,12304,028.1,045.5,0.475,733.0,01.19,0.508
2015-06-25 03:35:00,1647E-3,5C000000,-0724,0823,12166,028.1,045.4,0.475,733.0,01.19,0.508
2015-06-25 03:36:00,1630E-3,5C000000,-0724,0823,12349,028.1,045.5,0.475,733.0,01.19,0.508
2015-06-25 03:37:00,1757E-3,5C000000,-0724,0823,12259,028.1,045.5,0.475,733.0,01.19,0.508
2015-06-25 03:38:00,1661E-3,5C000000,-0724,0823,12375,028.1,045.4,0.475,733.0,01.19,0.508
2015-06-25 03:39:00,1683E-3,5C000000,-0724,0823,12328,028.1,045.4,0.475,733.0,01.19,0.508
2015-06-25 03:40:00,1645E-3,5C000000,-0724,0824,12119,028.1,045.5,0.475,733.1,01.19,0.508
2015-06-25 03:41:00,1741E-3,5C000000,-0724,0823,12244,028.1,045.5,0.476,733.0,01.19,0.508
2015-06-25 03:42:00,1663E-3,5C000000,-0724,0822,12235,028.1,045.4,0.475,733.1,01.19,0.508
2015-06-25 03:43:00,1601E-3,5C000000,-0724,0823,12222,028.1,045.5,0.475,733.0,01.19,0.508
2015-06-25 03:44:00,1738E-3,5C000000,-0724,0823,12147,028.1,045.4,0.475,732.9,01.19,0.508
2015-06-25 03:45:00,1730E-3,5C000000,-0724,0823,12287,028.1,045.5,0.475,733.0,01.19,0.508
2015-06-25 03:46:00,1740E-3,5C000000,-0724,0823,12276,028.1,045.5,0.475,733.0,01.19,0.508
2015-06-25 03:47:00,1692E-3,5C000000,-0724,0823,12287,028.1,045.5,0.475,733.0,01.19,0.508
2015-06-25 03:48:00,1625E-3,5C000000,-0724,0823,12196,028.1,045.5,0.475,733.0,01.19,0.508
2015-06-25 03:49:00,1793E-3,5C000000,-0724,0824,12009,028.1,045.4,0.475,732.9,01.19,0.508
2015-06-25 03:50:00,1730E-3,5C000000,-0724,0824,12221,028.1,045.5,0.475,732.9,01.19,0.508
2015-06-25 03:51:00,1667E-3,5C000000,-0724,0823,12328,028.1,045.5,0.475,732.9,01.19,0.508
2015-06-25 03:52:00,1772E-3,5C000000,-0724,0823,12360,028.1,045.5,0.475,732.8,01.19,0.508
2015-06-25 03:53:00,1857E-3,5C000000,-0724,0823,12181,028.1,045.5,0.475,732.9,01.19,0.508
2015-06-25 03:54:00,1638E-3,5C000000,-0724,0823,12304,028.1,045.4,0.475,732.9,01.19,0.508
2015-06-25 03:55:00,1781E-3,5C000000,-0724,0823,12230,028.1,045.4,0.475,733.0,01.19,0.508
2015-06-25 03:56:00,1850E-3,5C000000,-0724,0823,12359,028.1,045.5,0.475,733.0,01.19,0.508
2015-06-25 03:57:00,1632E-3,5C000000,-0724,0823,12178,028.1,045.5,0.475,733.0,01.19,0.508
2015-06-25 03:58:00,1705E-3,5C000000,-0724,0823,12036,028.1,045.4,0.475,733.0,01.19,0.508
2015-06-25 03:59:00,1708E-3,5C000000,-0724,0823,12122,028.1,045.5,0.475,733.0,01.19,0.508
2015-06-25 04:00:00,1710E-3,5C000000,-0724,0823,12192,028.1,045.5,0.475,733.0,01.19,0.508
2015-06-25 04:01:00,1805E-3,5C000000,-0724,0823,12227,028.1,045.5,0.475,732.9,01.19,0.508
2015-06-25 04:02:00,1687E-3,5C000000,-0724,0822,12344,028.1,045.5,0.475,733.0,01.19,0.508
2015-06-25 04:03:00,1749E-3,5C000000,-0724,0822,12304,028.1,045.5,0.475,733.0,01.19,0.508
2015-06-25 04:04:00,1892E-3,5C000000,-0724,0823,12198,028.1,045.4,0.475,733.0,01.19,0.508
2015-06-25 04:05:00,1691E-3,5C000000,-0724,0823,12185,028.1,045.4,0.475,733.0,01.19,0.508
2015-06-25 04:06:00,1723E-3,5C000000,-0724,0823,12233,028.1,045.4,0.475,733.0,01.19,0.508
2015-06-25 04:07:00,1759E-3,5C000000,-0724,0823,12464,028.1,045.5,0.475,732.9,01.19,0.508
2015-06-25 04:08:00,1704E-3,5C000000,-0724,0823,12256,028.1,045.5,0.475,733.0,01.19,0.508
2015-06-25 04:09:00,1652E-3,5C000000,-0724,0823,12234,028.1,045.5,0.475,733.0,01.19,0.508
2015-06-25 04:10:00,1585E-3,5C000000,-0724,0823,12175,028.2,045.4,0.475,733.1,01.19,0.508
2015-06-25 04:11:00,1595E-3,5C000000,-0724,0824,12302,028.2,045.5,0.475,733.0,01.19,0.508
2015-06-25 04:12:00,1760E-3,5C000000,-0724,0824,12210,028.1,045.5,0.475,733.0,01.19,0.508
2015-06-25 04:13:00,1770E-3,5C000000,-0724,0823,12351,028.1,045.5,0.475,733.1,01.19,0.508
2015-06-25 04:14:00,1694E-3,5C000000,-0724,0823,12279,028.1,045.5,0.475,733.0,01.19,0.508
2015-06-25 04:15:00,1698E-3,5C000000,-0724,0823,12269,028.2,045.5,0.475,733.0,01.19,0.508
2015-06-25 04:16:00,1755E-3,5C000000,-0724,0824,12156,028.2,045.5,0.475,733.0,01.19,0.508
2015-06-25 04:17:00,1629E-3,5C000000,-0724,0823,12256,028.2,045.5,0.475,733.0,01.19,0.508
2015-06-25 04:18:00,1701E-3,5C000000,-0724,0824,12287,028.1,045.5,0.475,733.0,01.19,0.508
2015-06-25 04:19:00,1721E-3,5C000000,-0724,0823,12337,028.1,045.4,0.475,733.0,01.19,0.508
2015-06-25 04:20:00,1738E-3,5C000000,-0724,0823,12181,028.2,045.4,0.475,733.0,01.19,0.508